Location: ?????
(33.6267°N, 35.4675°E)
Time: 00:23:53
(UTC+00:00)

YAOGAN 1 - Pass Details

Date: 12 November 2019
Orbit: 619 x 621 km, 98.0° (Epoch: 15 December)

Event Time Altitude Azimuth Distance (km) Brightness Sun altitude
Rises 15:51:50 0° 154° (SSE) 2,882 5.8 -15.7°
Reaches altitude 10° 15:54:03 10° 149° (SSE) 1,980 4.9 -16.2°
Maximum altitude 15:58:12 49° 74° (ENE) 806 2.7 -17.0°
Drops below altitude 10° 16:02:22 10° 0° (N) 1,992 5.1 -17.9°
Sets 16:04:37 0° 355° (N) 2,902 6.0 -18.3°
